Vientiane, Lao Peoples Republic

8:51 AM +07 on July 21, 2017 (GMT +0700)
Wattay International

Weather History for VLVT - March, 2014

Change the Weather History Date:

Friday, March 28, 2014

  Actual Average Record
Temperature  
Mean Temperature 87 °F -  
Max Temperature 98 °F 84 °F 100 °F (2013)
Min Temperature 76 °F 75 °F 62 °F (2011)
Cooling Degree Days 22    
Growing Degree Days 37 (Base 50)    
Moisture  
Dew Point 73 °F    
Average Humidity 60    
Maximum Humidity 83    
Minimum Humidity 34    
Precipitation  
Precipitation 0.00 in 0.11 in - ()
Sea Level Pressure  
Sea Level Pressure 29.73 in    
Wind  
Wind Speed 3 mph ()    
Max Wind Speed 7 mph    
Max Gust Speed -    
Visibility 2.6 miles    
Events      
Averages and records for this station are not official NWS values.
T = Trace of Precipitation, MM = Missing Value Source: Averaged Metar Reports

Daily Weather History Graph

Daily Weather History Graph

Search for Another Location

Airport or City:

Trip Planner

Search our weather history database for the weather conditions in past years. The results will help you decide how hot, cold, wet, or windy it might be!

Date:

Astronomy

Mar. 28, 2014 Rise Set
Actual Time 6:07 AM +07 6:22 PM +07
Civil Twilight 5:45 AM +07 6:44 PM +07
Nautical Twilight 5:20 AM +07 7:09 PM +07
Astronomical Twilight 4:55 AM +07 7:34 PM +07
Moon 3:54 AM +07 (3/28) 4:01 PM +07 (3/28)
Length of Visible Light 12h 58m
Length of Day
12h 14m
Waning Crescent, 9% of the Moon is Illuminated
Mar 28
Waning Crescent
Mar 31
New
Apr 7
First Quarter
Apr 15
Full
Apr 22
Last Quarter

Hourly Weather History & Observations

Time (+07) Temp. Heat Index Dew Point Humidity Pressure Visibility Wind Dir Wind Speed Gust Speed Precip Events Conditions
12:00 AM 82.4 °F 87.2 °F 71.6 °F 70% 29.77 in 1.2 mi East 2.3 mph - N/A   Mist
1:00 AM 83 °F - 72 °F 61% 29.73 in 1 mi SSE 4.5 mph - -   Mist
6:00 AM 78.8 °F - 73.4 °F 83% 29.71 in 1.9 mi North 2.3 mph - N/A   Scattered Clouds
6:30 AM 78.8 °F - 73.4 °F 83% 29.71 in 1.9 mi NNE 2.3 mph - N/A   Scattered Clouds
7:00 AM 77 °F - 72 °F 80% 29.76 in 1 mi SW 4.5 mph - -   Mist
7:00 AM 77.0 °F - 71.6 °F 83% 29.77 in 1.2 mi SW 2.3 mph - N/A   Partly Cloudy
7:30 AM 77.0 °F - 71.6 °F 83% 29.77 in 1.2 mi SW 2.3 mph - N/A   Partly Cloudy
8:00 AM 78.8 °F - 71.6 °F 78% 29.80 in 1.9 mi SW 2.3 mph - N/A   Scattered Clouds
8:30 AM 80.6 °F 84.6 °F 71.6 °F 74% 29.80 in 1.9 mi WSW 2.3 mph - N/A   Scattered Clouds
9:00 AM 80.6 °F 84.6 °F 71.6 °F 74% 29.83 in 1.9 mi South 2.3 mph - N/A   Scattered Clouds
9:30 AM 80.6 °F 84.6 °F 71.6 °F 74% 29.83 in 1.9 mi South 2.3 mph - N/A   Scattered Clouds
10:00 AM 86 °F - 73 °F 56% 29.81 in 2 mi SE 2.2 mph - -   Mist
10:00 AM 86.0 °F 93.4 °F 73.4 °F 66% 29.83 in 3.1 mi SE 2.3 mph - N/A   Scattered Clouds
10:30 AM 86.0 °F 93.4 °F 73.4 °F 66% 29.83 in 3.1 mi SE 2.3 mph - N/A   Scattered Clouds
11:00 AM 87.8 °F 93.8 °F 71.6 °F 58% 29.83 in 3.1 mi South 2.3 mph - N/A   Haze
11:30 AM 89.6 °F 94.7 °F 69.8 °F 52% 29.83 in 3.1 mi South 2.3 mph - N/A   Haze
12:00 PM 87.8 °F 93.8 °F 71.6 °F 58% 29.80 in 3.1 mi West 2.3 mph - N/A   Haze
1:00 PM 95 °F - 72 °F 38% 29.73 in 3 mi South 2.2 mph - -   Haze
1:00 PM 95.0 °F 103.2 °F 71.6 °F 47% 29.77 in 3.1 mi South 2.3 mph - N/A   Haze
1:30 PM 95.0 °F 103.2 °F 71.6 °F 47% 29.77 in 3.1 mi South 2.3 mph - N/A   Haze
2:00 PM 96.8 °F 105.1 °F 71.6 °F 44% 29.74 in 3.7 mi SE 2.3 mph - N/A   Partly Cloudy
2:30 PM 96.8 °F 105.1 °F 71.6 °F 44% 29.74 in 4.3 mi SE 2.3 mph - N/A   Partly Cloudy
3:00 PM 98.6 °F 105.5 °F 69.8 °F 39% 29.74 in 3.7 mi South 2.3 mph - N/A   Partly Cloudy
3:30 PM 98.6 °F 105.5 °F 69.8 °F 39% 29.74 in 3.7 mi SSW 2.3 mph - N/A   Partly Cloudy
4:00 PM 98 °F - 72 °F 34% 29.60 in 4 mi SE 2.2 mph - -   Haze
4:00 PM 98.6 °F 107.7 °F 71.6 °F 42% 29.74 in 3.7 mi SE 2.3 mph - N/A   Unknown
4:30 PM 98.6 °F 107.7 °F 71.6 °F 42% 29.74 in 3.7 mi SE 2.3 mph - N/A   Unknown
5:00 PM 96.8 °F 105.1 °F 71.6 °F 44% 29.62 in 3.7 mi SE 4.6 mph - N/A   Unknown
5:30 PM 96.8 °F 105.1 °F 71.6 °F 44% 29.62 in 3.7 mi SE 4.6 mph - N/A   Unknown
6:00 PM 95.0 °F 103.2 °F 71.6 °F 47% 29.59 in 3.7 mi East 4.6 mph - N/A   Unknown
6:30 PM 95.0 °F 103.2 °F 71.6 °F 47% 29.59 in 3.7 mi East 4.6 mph - N/A   Unknown
7:00 PM 92 °F - 76 °F 51% 29.60 in 2 mi East 4.5 mph - -   Mist
7:00 PM 91.4 °F 102.5 °F 75.2 °F 59% 29.65 in 2.5 mi East 4.6 mph - N/A   Mist
7:30 PM 91.4 °F 102.5 °F 75.2 °F 59% 29.65 in 2.5 mi East 4.6 mph - N/A   Mist
8:00 PM 86.0 °F 96.9 °F 77.0 °F 74% 29.68 in 1.9 mi NW 2.3 mph - N/A   Mist
9:00 PM 86.0 °F 96.9 °F 77.0 °F 74% 29.71 in 1.9 mi WNW 4.6 mph - N/A   Mist
10:00 PM 86 °F - 74 °F 61% 29.70 in 2 mi North 4.5 mph - -   Mist
10:00 PM 86.0 °F 95.1 °F 75.2 °F 70% 29.74 in 1.9 mi North 4.6 mph - N/A   Mist
10:30 PM 86.0 °F 95.1 °F 75.2 °F 70% 29.74 in 1.9 mi North 4.6 mph - N/A   Mist
11:00 PM 84.2 °F 92.3 °F 75.2 °F 74% 29.74 in 1.9 mi North 6.9 mph - N/A   Mist